Location: Foligno
(42.9600°N, 12.7050°E)
Time: 06:08:21
(UTC+01:00)

ISS - Pass Details

Date: 21 February 2020
Orbit: 415 x 423 km, 51.6° (Epoch: 27 February)

Event Time Altitude Azimuth Distance (km) Brightness Sun altitude
Rises 05:51:51 0° 203° (SSW) 2,349 -0.2 -13.0°
Reaches altitude 10° 05:54:13 10° 188° (S) 1,492 -1.0 -12.5°
Maximum altitude 05:56:53 22° 135° (SE) 968 -1.3 -12.0°
Drops below altitude 10° 05:59:34 10° 82° (E) 1,503 0.5 -11.5°
Sets 06:01:57 0° 67° (ENE) 2,373 1.3 -11.1°
